Location: Lane
(33.5226°N, 79.8788°W)
Time: 02:55:34
(UTC+00:00)

Tiros 1 despin weight - Pass Details

Date: 07 October 2022
Orbit: 590 x 637 km, 48.2° (Epoch: 30 November)

Event Time Altitude Azimuth Distance (km) Brightness Sun altitude
Rises 17:37:24 0° 202° (SSW) 2,800 ? 50.1°
Reaches altitude 10° 17:39:56 10° 189° (S) 1,906 ? 50.0°
Maximum altitude 17:43:35 26° 132° (SE) 1,167 ? 49.9°
Drops below altitude 10° 17:47:17 10° 76° (ENE) 1,930 ? 49.7°
Sets 17:49:51 0° 63° (ENE) 2,843 ? 49.5°
